Location: Forst
(46.9333°N, 15.4333°E)
Time: 15:42:50
(UTC+00:00)

SWAS - Pass Details

Date: 01 December 2020
Orbit: 579 x 591 km, 69.9° (Epoch: 27 January)

Event Time Altitude Azimuth Distance (km) Brightness Sun altitude
Rises 17:16:32 0° 210° (SSW) 2,788 8.5 -20.7°
Reaches altitude 10° 17:18:45 10° 212° (SSW) 1,892 7.6 -21.0°
Maximum altitude 17:22:59 79° 298° (WNW) 597 4.4 -21.7°
Enters shadow 17:24:01 51° 15° (NNE) 740 4.7 -21.9°
